CAPE
0 0 0 0 0 0 16 17 16 13 16 21 21 13 11 13 15 21 1 17 0 0 0 0 0 0 0 0 0 0 0 115 167 543 179 280 150 344 423 386 406 459 518 518 483 390 390 96 0 0 266 125 9 1
0 0 0 13 16 14 19 18 20 21 19 18 23 13 16 6 15 20 16 8 14 0 0 0 0 0 0 0 0 0 0 0 0 189 313 404 65 211 346 467 194 720 647 625 681 473 874 215 200 131 170 91 103 161
0 0 0 12 22 24 26 26 25 17 17 22 22 25 17 12 10 38 44 16 0 0 0 0 0 0 0 0 0 0 0 0 40 0 19 182 253 78 10 166 64 218 114 661 673 684 603 361 193 118 17 70 117 144
2 13 21 29 31 38 34 33 24 20 18 15 18 25 27 24 18 26 47 27 30 0 0 0 0 0 0 0 0 0 0 0 0 0 1 46 282 68 195 47 15 20 46 325 433 421 417 339 284 186 38 75 60 9
0 0 23 25 26 25 9 12 25 28 22 17 15 20 34 36 34 35 62 41 26 12 0 0 0 0 0 0 0 0 0 0 0 2 3 59 191 201 91 29 82 36 153 393 395 354 376 238 457 296 85 80 22 0
21 26 29 30 35 21 13 14 14 21 30 34 35 37 41 38 17 55 26 41 13 28 0 0 0 0 0 0 0 0 0 0 0 0 0 7 17 215 296 202 226 219 465 742 334 569 666 658 675 241 131 71 16 5
16 16 14 14 11 10 15 21 23 29 35 42 47 53 46 41 61 53 44 47 10 36 0 0 0 1 0 3 7 0 1 0 0 0 0 0 49 33 248 371 237 121 151 309 301 384 501 515 487 211 201 65 2 5
10 11 12 12 13 23 26 34 40 51 63 74 79 69 49 50 40 45 61 39 55 44 54 0 0 0 0 36 64 9 2 0 0 0 0 0 32 23 42 332 234 204 158 160 231 395 537 603 327 202 109 12 3 0
7 14 28 38 57 52 40 45 59 59 73 69 46 33 45 55 39 29 7 11 79 69 0 63 7 42 0 16 14 77 12 2 0 0 0 0 0 28 18 41 239 202 211 330 233 328 306 422 316 178 69 33 15 0
33 41 40 59 46 62 48 58 60 57 65 42 41 61 67 35 0 28 55 44 0 6 70 5 19 58 4 27 8 10 107 25 24 0 2 0 0 0 7 1 12 70 30 188 314 380 397 451 369 267 165 110 91 0
42 42 39 41 33 38 36 50 67 70 47 0 50 59 89 0 219 164 37 62 33 0 10 4 3 6 6 1 3 20 59 126 20 78 6 0 0 0 0 0 0 0 2 0 47 332 396 406 370 338 242 114 42 0
46 45 48 49 39 22 25 38 116 117 7 51 46 18 124 88 53 23 62 41 6 10 43 33 21 20 11 8 0 0 66 141 85 142 67 24 28 14 0 0 0 0 0 0 0 12 45 212 343 338 235 91 5 0
33 33 34 42 11 23 25 32 37 11 0 9 79 60 53 35 3 27 27 79 49 64 107 97 50 23 35 16 12 33 70 102 158 151 54 56 139 55 0 0 0 0 0 0 0 0 0 130 168 239 141 25 0 0
43 31 19 6 25 19 40 28 13 4 74 53 34 0 0 22 15 76 135 122 141 145 152 127 31 0 89 72 35 60 85 166 107 41 61 163 186 108 65 3 0 4 6 0 0 0 0 118 127 91 41 11 0 0
21 26 20 24 10 32 42 19 0 15 26 28 20 0 22 22 54 37 38 20 0 0 0 76 147 36 107 62 58 81 82 71 78 41 64 319 377 206 110 29 0 0 1 17 0 0 0 127 119 83 36 29 0 0
5 2 34 18 2 33 6 0 0 28 32 22 6 6 54 59 102 79 39 0 25 65 112 63 190 101 99 108 42 33 21 19 77 210 356 373 351 255 191 112 39 0 0 4 69 0 0 88 121 122 59 42 13 0
2 105 25 25 2 0 1 26 61 9 21 16 32 38 30 29 35 20 18 0 1 31 94 0 0 23 150 92 38 7 16 88 234 295 268 301 276 251 191 145 86 27 0 0 47 88 0 38 91 74 74 64 30 5
68 130 13 0 33 21 65 78 38 21 0 23 26 33 17 6 3 0 2 16 33 31 2 129 57 26 63 184 149 137 209 180 171 175 182 193 213 187 148 183 152 104 71 53 24 106 32 78 134 117 150 71 38 7
66 73 14 11 26 75 50 34 65 42 36 44 32 14 0 0 0 0 4 10 1 10 23 0 34 22 30 26 117 294 265 185 168 177 189 216 215 187 141 127 146 147 121 65 85 170 113 99 132 228 127 72 44 16
1 2 16 17 13 46 0 4 44 40 26 57 10 13 13 11 36 27 16 37 48 1 0 0 37 35 3 0 0 0 52 73 84 134 145 149 158 154 153 152 131 119 100 58 124 54 63 55 109 146 91 89 64 4
0 10 0 13 44 48 34 0 27 19 23 27 23 30 38 45 64 85 75 45 33 84 73 68 136 202 73 100 131 296 256 185 239 187 125 109 49 127 127 50 124 85 75 53 85 81 15 54 70 91 70 66 31 1
9 0 0 0 0 0 31 25 25 24 20 12 8 23 57 92 98 77 82 67 95 68 24 0 42 117 192 105 74 34 24 70 172 93 60 64 75 112 121 17 23 14 25 69 87 38 72 56 63 47 76 20 8 0
0 0 0 0 0 0 0 0 0 0 0 8 20 28 43 51 63 44 37 97 55 2 116 140 112 62 45 30 32 49 49 45 155 261 222 89 207 100 135 91 24 10 12 20 24 28 55 25 26 23 21 12 0 0
0 0 0 0 0 0 0 0 0 0 0 0 0 4 3 13 0 0 62 0 0 122 177 95 36 21 13 31 31 29 33 4 11 89 225 269 216 173 31 3 4 5 5 20 16 21 34 18 19 22 9 2 0 0
0 0 0 0 0 0 0 0 0 0 0 0 0 0 2 1 0 16 0 73 106 123 60 29 12 14 17 11 0 0 0 0 0 3 2 99 17 13 10 18 0 12 24 27 27 36 37 21 12 3 2 0 2 15
0 0 0 0 0 0 0 4 0 0 0 0 0 0 0 4 65 51 73 87 100 68 19 5 9 2 0 0 0 0 0 0 0 2 46 44 33 80 99 72 26 26 14 18 22 21 21 9 0 0 2 3 3 19
0 0 0 0 0 0 5 0 0 0 0 1 14 49 46 38 45 63 82 86 57 46 1 29 19 0 0 0 0 0 0 0 0 0 0 6 27 8 10 14 13 1 0 0 2 1 0 0 0 4 11 24 35 51
0 0 0 0 11 15 40 22 0 0 28 50 67 50 46 56 62 27 33 44 38 0 7 10 9 0 0 0 17 59 42 21 3 2 0 0 0 6 9 0 0 0 3 8 7 4 2 2 5 10 23 34 58 39
0 0 0 17 23 19 34 46 43 50 40 87 62 64 36 10 5 3 0 0 0 0 17 0 0 3 20 88 43 27 54 63 37 0 0 0 0 0 0 0 0 0 0 0 0 5 13 1 0 17 42 69 44 12
2 0 8 0 19 31 47 47 63 50 29 43 76 58 11 0 18 15 0 0 0 1 22 4 0 15 21 38 65 36 16 25 21 1 1 0 0 2 1 1 1 0 1 1 0 0 3 3 1 2 12 47 29 1
3 2 1 1 11 23 15 24 45 39 37 31 36 77 147 28 21 3 0 0 2 4 20 12 6 1 1 0 4 11 16 21 15 5 3 6 7 11 12 7 7 11 13 16 25 40 28 20 0 5 3 1 2 0
11 14 7 2 10 3 0 0 10 20 9 27 65 69 97 23 8 3 0 0 0 10 3 10 7 6 0 5 3 0 0 41 36 40 34 35 34 34 32 25 29 35 39 40 35 48 33 1 42 34 0 0 0 0
1 6 14 12 8 5 7 4 8 19 46 78 141 235 83 9 0 0 0 0 0 16 18 12 5 0 0 0 1 2 0 0 0 0 0 0 0 14 44 24 13 34 40 54 44 4 0 0 0 0 0 0 0 0
CIN
0 0 0 0 0 0 0 0 0 0 0 0 0 0 0 0 -1 -1 0 -2 0 0 0 0 0 0 0 0 0 0 0 -11 -19 0 -2 -1 -23 0 -3 0 0 0 0 0 0 0 0 -17 0 0 -16 -34 -31 -21
0 0 0 0 0 0 0 0 0 0 0 0 0 0 0 0 0 0 0 -1 -1 0 0 0 0 0 0 0 0 0 0 0 0 -9 0 -1 -6 0 -2 -1 -81 -2 -2 -1 0 -1 -9 -36 -7 -32 -24 -29 -42 -32
0 0 0 0 0 0 0 0 0 0 0 0 0 0 0 0 0 0 0 -1 0 0 0 0 0 0 0 0 0 0 0 0 0 0 -15 -1 -1 -26 -4 -1 -25 -44 -122 -4 -17 -23 -25 -38 -62 -58 -40 -36 -47 -47
0 0 0 0 0 0 0 0 0 0 0 0 0 0 0 0 0 0 0 0 0 0 0 0 0 0 0 0 0 0 0 0 0 0 0 -2 -3 -26 -2 -50 -7 -8 -34 -12 -1 -24 -36 -34 -36 -45 -78 -78 -91 -75
0 0 0 0 0 0 0 0 0 0 0 0 0 0 0 0 0 0 0 0 0 0 0 0 0 0 0 0 0 0 0 0 0 0 0 0 0 -20 -26 -28 -6 -67 -12 0 0 -1 -3 -1 -29 -46 -72 -73 -114 0
0 0 0 0 0 0 0 0 0 0 0 0 0 0 0 0 -3 0 0 0 -18 0 0 0 0 0 0 0 0 0 0 0 0 0 0 0 -2 -6 0 0 0 -23 -27 -22 0 -37 -8 -34 -14 -46 -39 -64 -102 -108
0 0 0 0 0 0 0 0 0 0 0 0 0 0 -1 -2 0 0 0 -1 -2 -1 0 0 0 0 0 0 0 0 0 0 0 0 0 0 -1 -1 0 0 -3 -46 -51 -56 -69 -69 -49 -40 -36 -61 -53 -88 -30 -45
0 0 0 0 0 0 0 0 0 0 0 0 0 -1 -3 -3 -2 0 0 -9 0 0 0 0 0 0 0 0 0 0 0 0 0 0 0 0 0 0 0 0 -4 -21 -45 -58 -62 -72 -59 -32 -70 -90 -116 -155 -54 0
0 0 0 0 0 0 0 0 0 0 -7 -3 -3 -4 0 -1 0 0 -18 -22 0 0 0 0 0 0 -2 -2 -1 0 0 0 0 0 0 0 0 0 0 0 -10 -18 -29 -24 -49 -66 -70 -47 -54 -103 -111 -106 -88 0
0 0 0 0 -2 0 -2 -1 -3 0 -6 -4 0 0 0 -1 0 -6 0 0 0 0 0 0 0 0 -1 0 -5 -1 0 0 0 0 0 0 0 0 0 0 -32 -34 -9 -64 -39 -38 -37 -32 -43 -66 -63 -54 -48 0
-1 -2 -1 -5 -4 -1 0 -2 -2 -4 -2 0 0 0 0 0 0 0 0 0 0 0 0 0 0 0 0 0 -4 0 0 0 0 0 0 0 0 0 0 0 0 0 -2 -1 -59 -38 -31 -13 -16 -29 -47 -72 -81 0
-4 -4 -4 -6 -3 -1 0 0 -3 0 -5 0 0 -4 0 0 0 0 0 0 0 0 0 0 0 0 0 0 0 0 0 0 -1 0 0 0 0 0 0 0 0 0 0 0 0 -2 -52 -38 -14 -21 -46 -75 -39 0
-3 -3 0 -4 -4 -7 -5 -4 -1 -1 0 0 0 0 0 0 0 0 0 0 0 0 0 0 0 0 0 0 0 0 0 0 0 0 -1 0 0 -17 0 0 0 0 0 0 0 0 0 -60 -58 -44 -77 -109 0 0
-2 -1 -1 -9 -2 -1 0 0 0 0 0 0 0 0 0 0 0 0 0 0 0 0 0 0 -2 0 0 0 0 0 0 0 0 0 0 -1 -1 -3 -16 -10 0 -52 -118 -4 0 0 0 -57 -63 -70 -90 -119 0 0
-9 -3 -1 -2 -7 -1 0 0 0 0 0 0 0 0 0 -1 -1 0 0 0 0 0 0 -1 0 0 0 0 0 0 0 0 0 0 0 0 0 -5 -17 -54 0 0 -37 -66 0 0 0 -41 -76 -80 -109 -144 0 0
-15 -3 -1 -3 0 -1 -1 0 0 0 0 0 0 0 0 0 0 0 0 0 0 -1 0 -2 0 0 0 0 0 0 0 0 0 0 0 -3 -4 -7 -8 -26 -58 0 0 -19 -47 0 0 -48 -65 -84 -127 -133 -133 0
-2 0 -7 -6 -11 0 0 0 0 0 0 0 0 0 0 0 0 0 -1 0 0 0 0 0 0 -4 0 0 0 0 0 -1 0 -1 0 -2 0 -2 -14 -21 -35 -68 0 0 -55 -50 0 -69 -64 -114 -121 -121 -117 -88
0 0 -4 0 -4 0 0 0 0 0 0 0 0 0 0 -2 -8 0 0 -1 0 0 0 0 0 0 0 0 0 0 0 0 0 -4 -10 -17 -2 -3 -12 -13 -20 -31 -44 -61 -76 -51 -70 -63 -86 -89 -81 -109 -85 -6
-5 -3 -3 -5 -1 -1 0 -3 0 0 0 0 0 0 0 0 0 0 -2 -1 -2 0 0 0 0 -5 -2 -1 0 0 0 0 0 0 0 -8 -9 -6 -9 -8 -15 -20 -26 -49 -56 -39 -51 -62 -66 -44 -85 -84 -52 -4
-13 -2 -2 -3 -4 0 0 0 -2 -2 0 0 -5 -2 -1 0 0 -1 -2 -5 -3 0 0 0 0 0 -2 0 0 0 0 -1 0 0 0 0 0 -1 -1 0 0 -4 -26 -52 -28 -64 -61 -56 -11 -33 -76 -54 -57 -31
-1 0 0 -3 0 0 0 0 0 0 0 -1 0 0 0 0 -1 0 -4 -4 0 0 0 0 0 0 -17 0 -1 0 0 0 0 0 0 0 -5 0 -1 -26 -2 -14 -20 -47 -29 -44 -27 -21 -36 -50 -70 -56 -36 -2
0 0 0 0 0 0 0 0 0 0 0 0 -6 0 0 0 -1 0 0 0 0 -1 0 0 -1 0 0 0 -2 -8 -2 -11 -1 -8 -39 -13 -11 -8 -1 -54 -76 -53 -94 -30 -23 -67 -36 -54 -56 -88 -41 -9 -7 0
0 0 0 0 0 0 0 0 0 0 0 0 0 0 -2 -2 0 0 0 0 0 -2 0 0 0 -7 -11 -12 -14 -1 0 -4 0 0 0 -7 0 -1 -1 -17 -43 0 -116 -56 -65 -64 -82 -67 -56 -40 -18 -5 0 0
0 0 0 0 0 0 0 0 0 0 0 0 0 0 -1 -6 -1 0 -1 -1 0 0 0 -1 -17 0 0 0 0 0 0 0 0 -36 0 0 0 0 -29 0 0 -129 -67 -39 -37 -74 -58 -58 -28 -14 -12 -11 0 0
0 0 0 0 0 0 0 0 0 0 0 0 0 -1 -2 -5 0 0 0 0 0 0 -6 -5 -15 0 0 0 0 0 0 -2 0 -19 -45 -2 -39 -3 -59 -49 -3 -39 -49 -50 -59 -48 -41 -16 -16 -7 -8 0 0 0
0 0 0 0 0 -2 0 0 0 0 0 0 0 0 0 0 -1 0 0 -1 -4 -1 -2 -11 -20 -2 0 0 0 0 0 0 0 0 -8 -12 -19 -14 -10 -8 -21 -18 -18 -20 -32 -34 -24 -12 0 0 0 0 -3 -1
0 0 0 0 0 0 0 0 0 0 0 -2 -2 -2 0 0 0 0 -1 0 0 0 -2 0 -2 0 0 0 0 0 0 0 0 0 0 -2 -1 -10 -5 -8 -7 -10 0 0 -2 -2 0 0 0 0 0 0 0 0
0 0 0 0 0 -3 0 0 0 0 0 0 0 0 0 0 0 0 0 0 0 0 -14 0 0 0 -1 0 0 0 0 0 0 0 0 0 0 -8 -1 0 0 0 0 0 0 0 0 0 0 0 0 0 0 0
0 0 0 0 0 0 0 0 0 0 -1 0 0 0 0 0 0 -1 0 0 0 0 -7 0 -1 0 -2 0 -18 -37 -25 -8 -4 0 0 0 0 0 0 0 0 0 0 0 0 -2 0 -1 0 0 0 0 -1 -6
0 0 0 0 0 0 0 -3 -1 -5 -4 -4 -2 0 0 0 -1 0 0 0 0 0 -28 0 0 -2 -3 -9 -3 -7 -3 -7 0 0 0 0 0 0 0 0 0 0 0 0 0 0 -1 0 0 -40 -21 -2 -14 0
0 0 0 0 0 0 -1 -3 -1 -3 -1 0 -2 -2 0 -1 0 0 0 0 0 0 -4 -15 -16 -4 -5 -2 -7 -23 -4 0 -1 -3 0 0 0 0 0 0 0 0 0 0 0 0 0 0 0 0 0 0 -1 0
0 0 0 0 0 0 0 0 0 0 0 0 -3 -4 -1 0 0 0 0 0 0 0 0 0 -5 -5 0 0 0 0 0 0 0 0 0 0 0 0 0 0 0 0 0 0 0 0 0 0 0 0 0 0 0 0
0 0 0 0 0 0 0 -2 0 0 0 0 0 0 0 0 0 0 0 0 0 -6 0 0 -8 0 0 0 0 -5 0 0 0 0 0 0 0 -1 0 0 -10 0 0 0 0 0 0 0 0 0 0 0 0 0
Wind_Speed
nan nan nan nan nan nan nan nan nan nan nan nan nan nan nan nan nan nan nan nan nan nan nan nan nan nan nan nan nan nan nan 36 36 39 40 41 40 43 36 21 30 29 27 27 29 22 25 nan nan nan 30 27 nan nan
nan nan nan nan nan nan nan nan nan nan nan nan nan nan nan nan nan nan nan nan nan nan nan nan nan nan nan nan nan nan nan nan nan 41 47 43 nan 41 44 31 32 26 33 34 24 26 36 28 21 25 25 nan 20 22
nan nan nan nan nan nan nan nan nan nan nan nan nan nan nan nan nan nan nan nan nan nan nan nan nan nan nan nan nan nan nan nan nan nan nan 47 48 nan nan 43 nan 35 31 32 29 31 31 23 26 24 nan nan 24 26
nan nan nan nan nan nan nan nan nan nan nan nan nan nan nan nan nan nan nan nan nan nan nan nan nan nan nan nan nan nan nan nan nan nan nan nan 40 nan 43 nan nan nan nan 37 35 29 24 20 19 23 nan nan nan nan
nan nan nan nan nan nan nan nan nan nan nan nan nan nan nan nan nan nan nan nan nan nan nan nan nan nan nan nan nan nan nan nan nan nan nan nan 45 36 nan nan nan nan 29 22 24 23 17 19 22 26 nan nan nan nan
nan nan nan nan nan nan nan nan nan nan nan nan nan nan nan nan nan nan nan nan nan nan nan nan nan nan nan nan nan nan nan nan nan nan nan nan nan 39 36 31 38 29 23 24 23 27 25 27 26 27 30 nan nan nan
nan nan nan nan nan nan nan nan nan nan nan nan nan nan nan nan nan nan nan nan nan nan nan nan nan nan nan nan nan nan nan nan nan nan nan nan nan nan 39 34 37 32 24 25 27 26 24 25 25 28 33 nan nan nan
nan nan nan nan nan nan nan nan nan nan nan nan nan nan nan nan nan nan nan nan nan nan nan nan nan nan nan nan nan nan nan nan nan nan nan nan nan nan nan 32 36 34 32 27 24 24 26 28 31 32 36 nan nan nan
nan nan nan nan nan nan nan nan nan nan nan nan nan nan nan nan nan nan nan nan nan nan nan nan nan nan nan nan nan nan nan nan nan nan nan nan nan nan nan nan 26 28 29 32 27 26 26 26 30 33 nan nan nan nan
nan nan nan nan nan nan nan nan nan nan nan nan nan nan nan nan nan nan nan nan nan nan nan nan nan nan nan nan nan nan 38 nan nan nan nan nan nan nan nan nan nan nan nan 29 26 23 26 27 27 28 27 26 nan nan
nan nan nan nan nan nan nan nan nan nan nan nan nan nan nan nan 13 12 nan nan nan nan nan nan nan nan nan nan nan nan nan 41 nan nan nan nan nan nan nan nan nan nan nan nan nan 30 27 27 25 27 26 26 nan nan
nan nan nan nan nan nan nan nan 20 19 nan nan nan nan 14 nan nan nan nan nan nan nan nan nan nan nan nan nan nan nan nan 34 nan 39 nan nan nan nan nan nan nan nan nan nan nan nan nan 26 25 27 29 nan nan nan
nan nan nan nan nan nan nan nan nan nan nan nan nan nan nan nan nan nan nan nan nan nan 8 nan nan nan nan nan nan nan nan 33 34 26 nan nan 49 nan nan nan nan nan nan nan nan nan nan 28 31 31 32 nan nan nan
nan nan nan nan nan nan nan nan nan nan nan nan nan nan nan nan nan nan 13 17 17 16 19 22 nan nan nan nan nan nan nan 32 37 nan nan 23 29 41 nan nan nan nan nan nan nan nan nan 26 31 nan nan nan nan nan
nan nan nan nan nan nan nan nan nan nan nan nan nan nan nan nan nan nan nan nan nan nan nan nan 4 nan 7 nan nan nan nan nan nan nan nan 32 29 32 39 nan nan nan nan nan nan nan nan 26 27 nan nan nan nan nan
nan nan nan nan nan nan nan nan nan nan nan nan nan nan nan nan 16 nan nan nan nan nan 15 nan 9 3 nan 10 nan nan nan nan nan 38 47 37 31 29 35 37 nan nan nan nan nan nan nan nan 25 28 nan nan nan nan
nan 9 nan nan nan nan nan nan nan nan nan nan nan nan nan nan nan nan nan nan nan nan nan nan nan nan 11 nan nan nan nan nan 41 36 34 40 38 36 35 33 nan nan nan nan nan nan nan nan nan nan nan nan nan nan
nan 7 nan nan nan nan nan nan nan nan nan nan nan nan nan nan nan nan nan nan nan nan nan 10 nan nan nan 6 7 11 17 27 30 34 39 36 33 36 38 36 35 32 nan nan nan 26 nan nan 23 26 27 nan nan nan
nan nan nan nan nan nan nan nan nan nan nan nan nan nan nan nan nan nan nan nan nan nan nan nan nan nan nan nan 10 13 18 24 28 31 34 36 37 36 37 36 34 32 32 nan nan 26 24 nan 23 23 22 nan nan nan
nan nan nan nan nan nan nan nan nan nan nan nan nan nan nan nan nan nan nan nan nan nan nan nan nan nan nan nan nan nan nan nan nan 19 22 27 31 33 33 35 34 36 31 nan 24 nan nan nan 24 25 nan nan nan nan
nan nan nan nan nan nan nan nan nan nan nan nan nan nan nan nan nan nan nan nan nan nan nan nan 11 9 nan 6 7 4 5 10 13 14 18 25 nan 33 35 nan 30 nan nan nan nan nan nan nan nan nan nan nan nan nan
nan nan nan nan nan nan nan nan nan nan nan nan nan nan nan nan nan nan nan nan nan nan nan nan nan 4 4 6 nan nan nan nan 15 nan nan nan nan 26 31 nan nan nan nan nan nan nan nan nan nan nan nan nan nan nan
nan nan nan nan nan nan nan nan nan nan nan nan nan nan nan nan nan nan nan nan nan nan 11 6 5 nan nan nan nan nan nan nan 12 10 13 nan 25 24 25 nan nan nan nan nan nan nan nan nan nan nan nan nan nan nan
nan nan nan nan nan nan nan nan nan nan nan nan nan nan nan nan nan nan nan nan nan 12 3 nan nan nan nan nan nan nan nan nan nan nan 21 25 24 22 nan nan nan nan nan nan nan nan nan nan nan nan nan nan nan nan
nan nan nan nan nan nan nan nan nan nan nan nan nan nan nan nan nan nan nan nan 2 4 nan nan nan nan nan nan nan nan nan nan nan nan nan nan nan nan nan nan nan nan nan nan nan nan nan nan nan nan nan nan nan nan
nan nan nan nan nan nan nan nan nan nan nan nan nan nan nan nan nan nan nan nan 9 nan nan nan nan nan nan nan nan nan nan nan nan nan nan nan nan nan nan nan nan nan nan nan nan nan nan nan nan nan nan nan nan nan
nan nan nan nan nan nan nan nan nan nan nan nan nan nan nan nan nan nan nan nan nan nan nan nan nan nan nan nan nan nan nan nan nan nan nan nan nan nan nan nan nan nan nan nan nan nan nan nan nan nan nan nan nan nan
nan nan nan nan nan nan nan nan nan nan nan nan nan nan nan nan nan nan nan nan nan nan nan nan nan nan nan nan nan nan nan nan nan nan nan nan nan nan nan nan nan nan nan nan nan nan nan nan nan nan nan nan nan nan
nan nan nan nan nan nan nan nan nan nan nan nan nan nan nan nan nan nan nan nan nan nan nan nan nan nan nan nan nan nan nan nan nan nan nan nan nan nan nan nan nan nan nan nan nan nan nan nan nan nan nan nan nan nan
nan nan nan nan nan nan nan nan nan nan nan nan nan nan nan nan nan nan nan nan nan nan nan nan nan nan nan nan nan nan nan nan nan nan nan nan nan nan nan nan nan nan nan nan nan nan nan nan nan nan nan nan nan nan
nan nan nan nan nan nan nan nan nan nan nan nan nan nan 3 nan nan nan nan nan nan nan nan nan nan nan nan nan nan nan nan nan nan nan nan nan nan nan nan nan nan nan nan nan nan nan nan nan nan nan nan nan nan nan
nan nan nan nan nan nan nan nan nan nan nan nan nan nan nan nan nan nan nan nan nan nan nan nan nan nan nan nan nan nan nan nan nan nan nan nan nan nan nan nan nan nan nan nan nan nan nan nan nan nan nan nan nan nan
nan nan nan nan nan nan nan nan nan nan nan nan 11 13 nan nan nan nan nan nan nan nan nan nan nan nan nan nan nan nan nan nan nan nan nan nan nan nan nan nan nan nan nan nan nan nan nan nan nan nan nan nan nan nan
Wind_Direction
nan nan nan nan nan nan nan nan nan nan nan nan nan nan nan nan nan nan nan nan nan nan nan nan nan nan nan nan nan nan nan 231 212 213 224 221 229 221 220 242 269 264 264 258 257 262 255 nan nan nan 263 271 nan nan
nan nan nan nan nan nan nan nan nan nan nan nan nan nan nan nan nan nan nan nan nan nan nan nan nan nan nan nan nan nan nan nan nan 215 220 227 nan 214 220 236 230 226 224 239 244 249 257 284 259 268 266 nan 282 291
nan nan nan nan nan nan nan nan nan nan nan nan nan nan nan nan nan nan nan nan nan nan nan nan nan nan nan nan nan nan nan nan nan nan nan 224 230 nan nan 225 nan 231 222 227 238 248 260 273 258 264 nan nan 280 285
nan nan nan nan nan nan nan nan nan nan nan nan nan nan nan nan nan nan nan nan nan nan nan nan nan nan nan nan nan nan nan nan nan nan nan nan 230 nan 247 nan nan nan nan 223 225 235 248 253 264 264 nan nan nan nan
nan nan nan nan nan nan nan nan nan nan nan nan nan nan nan nan nan nan nan nan nan nan nan nan nan nan nan nan nan nan nan nan nan nan nan nan 227 235 nan nan nan nan 227 198 217 233 236 248 270 275 nan nan nan nan
nan nan nan nan nan nan nan nan nan nan nan nan nan nan nan nan nan nan nan nan nan nan nan nan nan nan nan nan nan nan nan nan nan nan nan nan nan 225 231 243 249 274 261 220 220 221 237 238 271 279 281 nan nan nan
nan nan nan nan nan nan nan nan nan nan nan nan nan nan nan nan nan nan nan nan nan nan nan nan nan nan nan nan nan nan nan nan nan nan nan nan nan nan 226 232 244 243 237 232 232 242 250 261 261 275 277 nan nan nan
nan nan nan nan nan nan nan nan nan nan nan nan nan nan nan nan nan nan nan nan nan nan nan nan nan nan nan nan nan nan nan nan nan nan nan nan nan nan nan 233 243 236 231 237 240 240 229 251 266 271 276 nan nan nan
nan nan nan nan nan nan nan nan nan nan nan nan nan nan nan nan nan nan nan nan nan nan nan nan nan nan nan nan nan nan nan nan nan nan nan nan nan nan nan nan 230 231 227 229 245 245 246 261 268 276 nan nan nan nan
nan nan nan nan nan nan nan nan nan nan nan nan nan nan nan nan nan nan nan nan nan nan nan nan nan nan nan nan nan nan 215 nan nan nan nan nan nan nan nan nan nan nan nan 229 237 248 251 258 266 270 276 281 nan nan
nan nan nan nan nan nan nan nan nan nan nan nan nan nan nan nan 246 257 nan nan nan nan nan nan nan nan nan nan nan nan nan 207 nan nan nan nan nan nan nan nan nan nan nan nan nan 219 237 239 253 261 271 277 nan nan
nan nan nan nan nan nan nan nan 328 296 nan nan nan nan 248 nan nan nan nan nan nan nan nan nan nan nan nan nan nan nan nan 203 nan 231 nan nan nan nan nan nan nan nan nan nan nan nan nan 229 230 256 267 nan nan nan
nan nan nan nan nan nan nan nan nan nan nan nan nan nan nan nan nan nan nan nan nan nan 149 nan nan nan nan nan nan nan nan 200 201 210 nan nan 235 nan nan nan nan nan nan nan nan nan nan 231 242 254 264 nan nan nan
nan nan nan nan nan nan nan nan nan nan nan nan nan nan nan nan nan nan 163 164 163 151 153 156 nan nan nan nan nan nan nan 198 207 nan nan 227 230 229 nan nan nan nan nan nan nan nan nan 235 245 nan nan nan nan nan
nan nan nan nan nan nan nan nan nan nan nan nan nan nan nan nan nan nan nan nan nan nan nan nan 106 nan 209 nan nan nan nan nan nan nan nan 222 220 224 224 nan nan nan nan nan nan nan nan 243 250 nan nan nan nan nan
nan nan nan nan nan nan nan nan nan nan nan nan nan nan nan nan 127 nan nan nan nan nan 159 nan 144 167 nan 204 nan nan nan nan nan 216 218 221 211 208 212 216 nan nan nan nan nan nan nan nan 252 258 nan nan nan nan
nan 236 nan nan nan nan nan nan nan nan nan nan nan nan nan nan nan nan nan nan nan nan nan nan nan nan 164 nan nan nan nan nan 205 213 213 215 217 207 204 205 nan nan nan nan nan nan nan nan nan nan nan nan nan nan
nan 263 nan nan nan nan nan nan nan nan nan nan nan nan nan nan nan nan nan nan nan nan nan 130 nan nan nan 119 148 209 211 217 214 207 209 211 205 203 203 203 205 203 nan nan nan 215 nan nan 250 250 263 nan nan nan
nan nan nan nan nan nan nan nan nan nan nan nan nan nan nan nan nan nan nan nan nan nan nan nan nan nan nan nan 165 172 195 204 208 214 213 209 204 203 204 203 202 203 201 nan nan 217 225 nan 239 250 258 nan nan nan
nan nan nan nan nan nan nan nan nan nan nan nan nan nan nan nan nan nan nan nan nan nan nan nan nan nan nan nan nan nan nan nan nan 206 208 213 214 209 203 200 205 209 208 nan 215 nan nan nan 235 247 nan nan nan nan
nan nan nan nan nan nan nan nan nan nan nan nan nan nan nan nan nan nan nan nan nan nan nan nan 93 110 nan 158 171 204 170 194 193 188 190 198 nan 208 206 nan 200 nan nan nan nan nan nan nan nan nan nan nan nan nan
nan nan nan nan nan nan nan nan nan nan nan nan nan nan nan nan nan nan nan nan nan nan nan nan nan 145 165 204 nan nan nan nan 189 nan nan nan nan 198 203 nan nan nan nan nan nan nan nan nan nan nan nan nan nan nan
nan nan nan nan nan nan nan nan nan nan nan nan nan nan nan nan nan nan nan nan nan nan 53 49 80 nan nan nan nan nan nan nan 162 176 190 nan 177 187 188 nan nan nan nan nan nan nan nan nan nan nan nan nan nan nan
nan nan nan nan nan nan nan nan nan nan nan nan nan nan nan nan nan nan nan nan nan 54 54 nan nan nan nan nan nan nan nan nan nan nan 166 155 159 164 nan nan nan nan nan nan nan nan nan nan nan nan nan nan nan nan
nan nan nan nan nan nan nan nan nan nan nan nan nan nan nan nan nan nan nan nan 182 195 nan nan nan nan nan nan nan nan nan nan nan nan nan nan nan nan nan nan nan nan nan nan nan nan nan nan nan nan nan nan nan nan
nan nan nan nan nan nan nan nan nan nan nan nan nan nan nan nan nan nan nan nan 121 nan nan nan nan nan nan nan nan nan nan nan nan nan nan nan nan nan nan nan nan nan nan nan nan nan nan nan nan nan nan nan nan nan
nan nan nan nan nan nan nan nan nan nan nan nan nan nan nan nan nan nan nan nan nan nan nan nan nan nan nan nan nan nan nan nan nan nan nan nan nan nan nan nan nan nan nan nan nan nan nan nan nan nan nan nan nan nan
nan nan nan nan nan nan nan nan nan nan nan nan nan nan nan nan nan nan nan nan nan nan nan nan nan nan nan nan nan nan nan nan nan nan nan nan nan nan nan nan nan nan nan nan nan nan nan nan nan nan nan nan nan nan
nan nan nan nan nan nan nan nan nan nan nan nan nan nan nan nan nan nan nan nan nan nan nan nan nan nan nan nan nan nan nan nan nan nan nan nan nan nan nan nan nan nan nan nan nan nan nan nan nan nan nan nan nan nan
nan nan nan nan nan nan nan nan nan nan nan nan nan nan nan nan nan nan nan nan nan nan nan nan nan nan nan nan nan nan nan nan nan nan nan nan nan nan nan nan nan nan nan nan nan nan nan nan nan nan nan nan nan nan
nan nan nan nan nan nan nan nan nan nan nan nan nan nan 303 nan nan nan nan nan nan nan nan nan nan nan nan nan nan nan nan nan nan nan nan nan nan nan nan nan nan nan nan nan nan nan nan nan nan nan nan nan nan nan
nan nan nan nan nan nan nan nan nan nan nan nan nan nan nan nan nan nan nan nan nan nan nan nan nan nan nan nan nan nan nan nan nan nan nan nan nan nan nan nan nan nan nan nan nan nan nan nan nan nan nan nan nan nan
nan nan nan nan nan nan nan nan nan nan nan nan 212 227 nan nan nan nan nan nan nan nan nan nan nan nan nan nan nan nan nan nan nan nan nan nan nan nan nan nan nan nan nan nan nan nan nan nan nan nan nan nan nan nan